| time (UTC) | temp C | wind direction | speed KPH | gust KPH | rain 1hr cm | rain 24hr cm | rain mn cm | humidity % | barometer mb |
| 20260507000056 | 19 | 0 | 0.0 | 6.4 | 0.00 | 0.05 | 0.05 | 82 | 1009.1 |
| 20260506234605 | 20 | 161 | 1.6 | 6.4 | 0.00 | 0.05 | 0.05 | 81 | 1008.9 |
| 20260506233056 | 20 | 169 | 0.0 | 11.3 | 0.00 | 0.05 | 0.05 | 81 | 1008.7 |
| 20260506231556 | 20 | 176 | 4.8 | 17.7 | 0.00 | 0.05 | 0.05 | 80 | 1008.9 |
| 20260506224602 | 20 | 212 | 1.6 | 16.1 | 0.00 | 0.05 | 0.05 | 79 | 1008.8 |
| 20260506223101 | 20 | 227 | 8.0 | 16.1 | 0.00 | 0.05 | 0.05 | 79 | 1009.0 |
| 20260506221557 | 20 | 206 | 6.4 | 25.7 | 0.00 | 0.05 | 0.05 | 78 | 1008.9 |
| 20260506220054 | 21 | 177 | 4.8 | 14.5 | 0.00 | 0.05 | 0.05 | 78 | 1008.7 |
| 20260506214559 | 21 | 159 | 4.8 | 14.5 | 0.00 | 0.05 | 0.05 | 77 | 1008.7 |
| 20260506213101 | 20 | 173 | 6.4 | 17.7 | 0.00 | 0.05 | 0.05 | 78 | 1008.5 |
| 20260506211554 | 20 | 222 | 6.4 | 19.3 | 0.00 | 0.05 | 0.05 | 77 | 1008.5 |
| 20260506210055 | 20 | 154 | 3.2 | 16.1 | 0.00 | 0.05 | 0.05 | 78 | 1008.5 |
| 20260506204556 | 20 | 199 | 3.2 | 22.5 | 0.00 | 0.05 | 0.05 | 78 | 1008.3 |
| 20260506203056 | 21 | 154 | 3.2 | 24.1 | 0.00 | 0.05 | 0.05 | 77 | 1008.2 |
| 20260506201556 | 20 | 195 | 8.0 | 33.8 | 0.00 | 0.05 | 0.05 | 78 | 1008.2 |
| 20260506200059 | 20 | 166 | 3.2 | 16.1 | 0.00 | 0.05 | 0.05 | 79 | 1008.3 |
| 20260506194556 | 20 | 165 | 8.0 | 22.5 | 0.00 | 0.05 | 0.05 | 80 | 1008.5 |
| 20260506193054 | 19 | 191 | 3.2 | 20.9 | 0.00 | 0.05 | 0.05 | 80 | 1008.7 |
| 20260506191552 | 19 | 231 | 8.0 | 20.9 | 0.00 | 0.05 | 0.05 | 81 | 1009.0 |
| 20260506190054 | 18 | 159 | 6.4 | 17.7 | 0.00 | 0.05 | 0.05 | 81 | 1008.9 |
| 20260506184554 | 18 | 164 | 8.0 | 24.1 | 0.00 | 0.05 | 0.05 | 81 | 1009.2 |
| 20260506183054 | 18 | 172 | 4.8 | 20.9 | 0.00 | 0.05 | 0.05 | 82 | 1009.2 |
| 20260506181555 | 18 | 174 | 8.0 | 30.6 | 0.00 | 0.05 | 0.05 | 82 | 1009.1 |
| 20260506180051 | 18 | 190 | 6.4 | 30.6 | 0.00 | 0.05 | 0.05 | 83 | 1009.3 |
| 20260506174557 | 18 | 205 | 6.4 | 19.3 | 0.00 | 0.05 | 0.05 | 83 | 1009.3 |
| 20260506173123 | 18 | 164 | 1.6 | 16.1 | 0.00 | 0.05 | 0.05 | 85 | 1009.5 |
| 20260506171602 | 17 | 191 | 3.2 | 17.7 | 0.00 | 0.05 | 0.05 | 86 | 1009.6 |
| 20260506170052 | 17 | 164 | 6.4 | 22.5 | 0.03 | 0.05 | 0.05 | 86 | 1009.8 |
| 20260506164556 | 17 | 191 | 4.8 | 20.9 | 0.03 | 0.05 | 0.05 | 87 | 1009.9 |
| 20260506163106 | 17 | 222 | 8.0 | 22.5 | 0.05 | 0.05 | 0.05 | 86 | 1010.3 |
| 20260506161622 | 17 | 179 | 1.6 | 19.3 | 0.05 | 0.05 | 0.05 | 88 | 1010.4 |
| 20260506160108 | 17 | 177 | 4.8 | 24.1 | 0.03 | 0.03 | 0.03 | 85 | 1010.6 |
| 20260506154600 | 18 | 168 | 6.4 | 16.1 | 0.03 | 0.03 | 0.03 | 82 | 1011.1 |
| 20260506153057 | 18 | 118 | 4.8 | 16.1 | 0.00 | 0.00 | 0.00 | 80 | 1011.1 |
| 20260506151555 | 18 | 171 | 4.8 | 32.2 | 0.00 | 0.00 | 0.00 | 77 | 1010.7 |
| 20260506150052 | 20 | 175 | 8.0 | 19.3 | 0.00 | 0.00 | 0.00 | 71 | 1010.8 |
| 20260506144555 | 20 | 228 | 6.4 | 17.7 | 0.00 | 0.00 | 0.00 | 70 | 1010.8 |
| 20260506143054 | 20 | 173 | 6.4 | 25.7 | 0.00 | 0.00 | 0.00 | 69 | 1011.0 |
| 20260506141552 | 20 | 226 | 8.0 | 20.9 | 0.00 | 0.00 | 0.00 | 68 | 1011.1 |
| 20260506140052 | 20 | 180 | 8.0 | 20.9 | 0.00 | 0.00 | 0.00 | 68 | 1011.0 |
| 20260506134552 | 20 | 168 | 6.4 | 29.0 | 0.00 | 0.00 | 0.00 | 66 | 1010.7 |
| 20260506133053 | 20 | 181 | 8.0 | 19.3 | 0.00 | 0.00 | 0.00 | 67 | 1010.7 |
| 20260506131602 | 20 | 196 | 8.0 | 20.9 | 0.00 | 0.00 | 0.00 | 68 | 1010.8 |
| 20260506130112 | 19 | 165 | 4.8 | 20.9 | 0.00 | 0.00 | 0.00 | 69 | 1010.6 |
| 20260506124600 | 19 | 184 | 3.2 | 22.5 | 0.00 | 0.00 | 0.00 | 70 | 1010.8 |
| 20260506123054 | 19 | 199 | 6.4 | 20.9 | 0.00 | 0.00 | 0.00 | 71 | 1010.9 |
| 20260506121554 | 18 | 166 | 4.8 | 17.7 | 0.00 | 0.00 | 0.00 | 72 | 1010.9 |
| 20260506120105 | 18 | 172 | 4.8 | 20.9 | 0.00 | 0.00 | 0.00 | 74 | 1010.8 |
| 20260506114556 | 18 | 212 | 4.8 | 22.5 | 0.00 | 0.00 | 0.00 | 75 | 1010.7 |
| 20260506113058 | 18 | 161 | 8.0 | 16.1 | 0.00 | 0.00 | 0.00 | 76 | 1010.6 |
| 20260506111557 | 18 | 166 | 9.7 | 20.9 | 0.00 | 0.00 | 0.00 | 76 | 1010.6 |
| 20260506104557 | 18 | 150 | 6.4 | 22.5 | 0.00 | 0.00 | 0.00 | 76 | 1010.5 |
| 20260506103100 | 18 | 172 | 6.4 | 25.7 | 0.00 | 0.00 | 0.00 | 77 | 1010.6 |
| 20260506101600 | 17 | 217 | 4.8 | 25.7 | 0.00 | 0.00 | 0.00 | 77 | 1010.6 |
| 20260506100109 | 17 | 128 | 8.0 | 19.3 | 0.00 | 0.00 | 0.00 | 78 | 1010.4 |
| 20260506094553 | 17 | 222 | 8.0 | 25.7 | 0.00 | 0.00 | 0.00 | 77 | 1010.5 |
| 20260506093053 | 17 | 0 | 4.8 | 20.9 | 0.00 | 0.00 | 0.00 | 77 | 1010.6 |
| 20260506091551 | 18 | 177 | 8.0 | 20.9 | 0.00 | 0.00 | 0.00 | 77 | 1010.4 |
| 20260506090056 | 18 | 127 | 4.8 | 17.7 | 0.00 | 0.00 | 0.00 | 77 | 1010.3 |
| 20260506084621 | 18 | 178 | 8.0 | 25.7 | 0.00 | 0.00 | 0.00 | 77 | 1010.5 |
| 20260506083056 | 18 | 157 | 6.4 | 16.1 | 0.00 | 0.00 | 0.00 | 76 | 1010.4 |
| 20260506081557 | 18 | 191 | 4.8 | 19.3 | 0.00 | 0.00 | 0.00 | 76 | 1010.6 |
| 20260506073100 | 19 | 172 | 4.8 | 19.3 | 0.00 | 0.00 | 0.00 | 75 | 1010.7 |
| 20260506071559 | 19 | 191 | 4.8 | 30.6 | 0.00 | 0.00 | 0.00 | 74 | 1010.6 |
| 20260506061554 | 20 | 159 | 4.8 | 32.2 | 0.00 | 0.00 | 0.00 | 72 | 1011.0 |
| 20260506044702 | 20 | 158 | 1.6 | 16.1 | 0.00 | 0.00 | 0.00 | 70 | 1011.5 |
| 20260506043101 | 20 | 198 | 6.4 | 19.3 | 0.00 | 0.00 | 0.00 | 69 | 1011.5 |
| 20260506041602 | 20 | 174 | 3.2 | 12.9 | 0.00 | 0.00 | 0.00 | 68 | 1011.5 |
| 20260506040053 | 20 | 181 | 1.6 | 11.3 | 0.00 | 0.00 | 0.00 | 67 | 1011.5 |
| 20260506034626 | 21 | 172 | 3.2 | 16.1 | 0.00 | 0.00 | 0.00 | 64 | 1011.4 |
| 20260506033101 | 21 | 179 | 4.8 | 16.1 | 0.00 | 0.00 | 0.00 | 63 | 1011.5 |
| 20260506031553 | 21 | 199 | 4.8 | 19.3 | 0.00 | 0.00 | 0.00 | 62 | 1011.3 |
| 20260506030056 | 21 | 156 | 3.2 | 16.1 | 0.00 | 0.00 | 0.00 | 61 | 1011.5 |
| 20260506024600 | 21 | 196 | 3.2 | 17.7 | 0.00 | 0.00 | 0.00 | 61 | 1011.6 |
| 20260506023111 | 21 | 182 | 1.6 | 9.7 | 0.00 | 0.00 | 0.00 | 61 | 1011.7 |
| 20260506021600 | 21 | 0 | 1.6 | 14.5 | 0.00 | 0.00 | 0.00 | 59 | 1011.6 |
| 20260506020059 | 22 | 162 | 3.2 | 11.3 | 0.00 | 0.00 | 0.00 | 59 | 1011.5 |
| 20260506014559 | 22 | 186 | 4.8 | 16.1 | 0.00 | 0.00 | 0.00 | 57 | 1011.3 |
| 20260506013100 | 22 | 183 | 6.4 | 20.9 | 0.00 | 0.00 | 0.00 | 56 | 1011.1 |
| 20260506011626 | 22 | 149 | 4.8 | 16.1 | 0.00 | 0.00 | 0.00 | 55 | 1011.0 |
| 20260506004632 | 23 | 126 | 3.2 | 20.9 | 0.00 | 0.00 | 0.00 | 53 | 1010.6 |
| 20260506003112 | 23 | 93 | 4.8 | 17.7 | 0.00 | 0.00 | 0.00 | 52 | 1010.5 |
| 20260506001559 | 23 | 0 | 4.8 | 17.7 | 0.00 | 0.00 | 0.00 | 51 | 1010.2 |